WetterOnline ( https://www.wetteronline.de )

Wetter aktuell Ahaus

Aktuelles Wetter: Ahaus (46m)

6-stündlich | Neueste Meldungen
Ortszeit Temperatur Wetter
Do, 05.08. 2:00 13.4° C bewölkt
Mi, 04.08. 20:00 19.1° C bewölkt
Mi, 04.08. 14:00 20.6° C fast wolkenlos
Mi, 04.08. 8:00 14.6° C bewölkt
Mi, 04.08. 2:00 13.9° C bedeckt
Di, 03.08. 20:00 17.6° C bedeckt
Di, 03.08. 14:00 17.6° C bedeckt
Di, 03.08. 8:00 13.3° C wolkig
Ortszeit Temperatur Wetter
Do, 05.08. 4:30 14.1° C Sprühregen
Do, 05.08. 4:20 14.1° C Sprühregen
Do, 05.08. 4:10 14.0° C leichter Regen
Do, 05.08. 4:00 14.0° C bedeckt
Do, 05.08. 3:50 14.0° C bedeckt
Do, 05.08. 3:40 14.0° C bedeckt
Do, 05.08. 3:30 13.9° C bedeckt
Do, 05.08. 3:00 13.8° C bedeckt
Do, 05.08. 2:30 13.7° C bedeckt
Do, 05.08. 2:00 13.4° C bewölkt
Do, 05.08. 1:30 13.7° C bewölkt
Ortszeit Relative Feuchte Sichtweite
Do, 05.08. 2:00 97% 8 km
Mi, 04.08. 20:00 71% 50 km
Mi, 04.08. 14:00 55% 60 km
Mi, 04.08. 8:00 88% 29 km
Mi, 04.08. 2:00 94% 30 km
Di, 03.08. 20:00 72% 45 km
Di, 03.08. 14:00 69% 35 km
Di, 03.08. 8:00 88% 28 km
Ortszeit Relative Feuchte Sichtweite
Do, 05.08. 4:30 97% 4.7 km
Do, 05.08. 4:20 97% -
Do, 05.08. 4:10 97% -
Do, 05.08. 4:00 97% 7 km
Do, 05.08. 3:50 97% -
Do, 05.08. 3:40 97% -
Do, 05.08. 3:30 97% 9 km
Do, 05.08. 3:00 98% 8 km
Do, 05.08. 2:30 97% 11 km
Do, 05.08. 2:00 97% 8 km
Do, 05.08. 1:30 97% 8 km
Ortszeit Niederschlagsmenge Niederschlagsart
Do, 05.08. 2:00 0.0 l/m2 in 6 Std. -
Mi, 04.08. 20:00 0.1 l/m2 in 12 Std. Regen
Mi, 04.08. 14:00 0.0 l/m2 in 6 Std. -
Mi, 04.08. 8:00 0.1 l/m2 in 12 Std. -
Mi, 04.08. 2:00 0.1 l/m2 in 6 Std. Regen
Di, 03.08. 20:00 0.1 l/m2 in 12 Std. -
Di, 03.08. 14:00 0.1 l/m2 in 6 Std. Sprühregen
Di, 03.08. 8:00 0.0 l/m2 in 12 Std. -
Ortszeit Niederschlagsmenge Niederschlagsart
Do, 05.08. 4:30 0.1 l/m2 in 1 Std. -
Do, 05.08. 4:20 keine Meldung -
Do, 05.08. 4:10 keine Meldung -
Do, 05.08. 4:00 0.0 l/m2 in 1 Std. -
Do, 05.08. 3:50 keine Meldung -
Do, 05.08. 3:40 keine Meldung -
Do, 05.08. 3:30 0.0 l/m2 in 1 Std. -
Do, 05.08. 3:00 0.0 l/m2 in 1 Std. -
Do, 05.08. 2:30 0.0 l/m2 in 1 Std. -
Do, 05.08. 2:00 0.0 l/m2 in 1 Std. -
Do, 05.08. 1:30 0.0 l/m2 in 1 Std. -
Ortszeit Stärke Spitze Richtung
km/h Bft. km/h Grad Sektor
Do, 05.08. 2:00 2 1 30 360° N
Mi, 04.08. 20:00 15 3 26 130° SO
Mi, 04.08. 14:00 7 2 22 40° NO
Mi, 04.08. 8:00 4 1 11 30° NO
Mi, 04.08. 2:00 0 0 11 - -
Di, 03.08. 20:00 9 2 15 320° NW
Di, 03.08. 14:00 7 2 18 20° N
Di, 03.08. 8:00 0 0 7 - -
Ortszeit Stärke Spitze Richtung
km/h Bft. km/h Grad Sektor
Do, 05.08. 4:30 4 1 4 110° O
Do, 05.08. 4:20 4 1 - 110° O
Do, 05.08. 4:10 0 0 - 90° O
Do, 05.08. 4:00 4 1 4 60° NO
Do, 05.08. 3:50 4 1 - 60° NO
Do, 05.08. 3:40 4 1 - 50° NO
Do, 05.08. 3:30 2 1 4 50° NO
Do, 05.08. 3:00 0 0 4 - -
Do, 05.08. 2:30 0 0 4 - -
Do, 05.08. 2:00 2 1 6 360° N
Do, 05.08. 1:30 2 1 4 320° NW
Ortszeit Untergrenze Bedeckung Gattung
total tief tief mittel hoch
Do, 05.08. 2:00 3300 m 7/8 7/8 - - -
Mi, 04.08. 20:00 1350 m 8/8 7/8 - - -
Mi, 04.08. 14:00 960 m 1/8 1/8 - - -
Mi, 04.08. 8:00 1500 m 7/8 7/8 - - -
Mi, 04.08. 2:00 1500 m 8/8 8/8 - - -
Di, 03.08. 20:00 2100 m 8/8 8/8 - - -
Di, 03.08. 14:00 900 m 8/8 8/8 - - -
Di, 03.08. 8:00 1380 m 8/8 1/8 - - -
Ortszeit Bedeckungsgrad in Achtel und Wolkenuntergrenze
Do, 05.08. 4:30 1(2400m) 8(3000m)
Do, 05.08. 4:20 1(2400m) 8(3000m)
Do, 05.08. 4:10 1(2400m) 7(3300m)
Do, 05.08. 4:00 7(3000m) 8(3600m) 8(3900m)
Do, 05.08. 3:50 7(3000m) 8(3600m)
Do, 05.08. 3:40 8(3000m) 8(3900m)
Do, 05.08. 3:30 7(3300m) 8(3900m)
Do, 05.08. 3:00 7(3300m) 8(3900m)
Do, 05.08. 2:30 2(3300m) 8(4200m)
Do, 05.08. 2:00 2(3300m) 7(4200m)
Do, 05.08. 1:30 6(3000m) 7(4200m)
Ortszeit Luftdruck NN (hPa) Tendenz (hPa in 3 Std.)
Do, 05.08. 2:00 1012 - 0,6
Mi, 04.08. 20:00 1012 - 0,5
Mi, 04.08. 14:00 1013 - 0,8
Mi, 04.08. 8:00 1014 + 0,6
Mi, 04.08. 2:00 1014 + 0,1
Di, 03.08. 20:00 1013 - 0,2
Di, 03.08. 14:00 1013 - 0,4
Di, 03.08. 8:00 1014 - 0,3
Ortszeit Luftdruck NN (hPa) Tendenz (hPa in 3 Std.)
Do, 05.08. 4:30 1011 - 1,2
Do, 05.08. 4:20 1011 keine Meldung
Do, 05.08. 4:10 1011 keine Meldung
Do, 05.08. 4:00 1011 - 1,4
Do, 05.08. 3:50 1011 keine Meldung
Do, 05.08. 3:40 1011 keine Meldung
Do, 05.08. 3:30 1012 - 1,2
Do, 05.08. 3:00 1012 - 0,9
Do, 05.08. 2:30 1012 - 0,6
Do, 05.08. 2:00 1012 - 0,6
Do, 05.08. 1:30 1012 - 0,2
Ortszeit Schneehöhe (cm)
Do, 05.08. 2:00 -
Mi, 04.08. 20:00 -
Mi, 04.08. 14:00 -
Mi, 04.08. 8:00 -
Mi, 04.08. 2:00 -
Di, 03.08. 20:00 -
Di, 03.08. 14:00 -
Di, 03.08. 8:00 -
Ortszeit Schneehöhe (cm)
Do, 05.08. 4:30 -
Do, 05.08. 4:20 -
Do, 05.08. 4:10 -
Do, 05.08. 4:00 -
Do, 05.08. 3:50 -
Do, 05.08. 3:40 -
Do, 05.08. 3:30 -
Do, 05.08. 3:00 -
Do, 05.08. 2:30 -
Do, 05.08. 2:00 -
Do, 05.08. 1:30 -
Link zu dieser Seite / Seite empfehlen

Das Wetter in ...